N955PM KPWM-KTEB

Flight info

Callsign N955PM
Flight time 0h 55m
Altitude 40000
Route HSKEL3 HANAA ALB/N0379F160 V489 COATE
Aircraft CL60/M-SBDE1E2E3FGHIJ1J4J5J7M3RWXYZ/LB1V1D1

Departure

Time 2026-04-29 00:30
Airport Portland International Jetport (KPWM)

Arrival

Time 2026-04-29 01:26
Airport Teterboro Airport (KTEB)
Time Latitude Longitude Altitude Speed Heading
2026-04-29 00:15 43.64923 -70.30827 60 ft 0 kts 358°
2026-04-29 00:26 43.64932 -70.30827 60 ft 3 kts 359°
2026-04-29 00:26 43.64955 -70.30801 60 ft 0 kts 64°
2026-04-29 00:26 43.64957 -70.30792 60 ft 5 kts 85°
2026-04-29 00:26 43.64923 -70.30708 60 ft 14 kts 175°
2026-04-29 00:27 43.64831 -70.30706 60 ft 19 kts 178°
2026-04-29 00:27 43.64683 -70.30698 60 ft 18 kts 178°
2026-04-29 00:27 43.64578 -70.30716 60 ft 15 kts 231°
2026-04-29 00:27 43.64580 -70.30893 60 ft 23 kts 278°
2026-04-29 00:28 43.64597 -70.31138 60 ft 26 kts 275°
2026-04-29 00:28 43.64616 -70.31419 60 ft 31 kts 275°
2026-04-29 00:28 43.64636 -70.31728 59 ft 33 kts 276°
2026-04-29 00:28 43.64659 -70.32048 59 ft 34 kts 275°
2026-04-29 00:29 43.64681 -70.32373 59 ft 32 kts 275°
2026-04-29 00:29 43.64630 -70.32596 59 ft 22 kts 191°
2026-04-29 00:29 43.64582 -70.32561 59 ft 0 kts 94°
2026-04-29 00:29 43.64557 -70.32171 60 ft 93 kts 95°
2026-04-29 00:30 43.64475 -70.30930 262 ft 154 kts 95°
2026-04-29 00:30 43.64374 -70.29388 1038 ft 174 kts 95°
2026-04-29 00:30 43.64269 -70.27587 1770 ft 204 kts 95°
2026-04-29 00:30 43.64410 -70.25584 2699 ft 229 kts 72°
2026-04-29 00:31 43.65233 -70.23556 3149 ft 259 kts 56°
2026-04-29 00:31 43.66560 -70.21829 3024 ft 261 kts 33°
2026-04-29 00:31 43.68247 -70.21057 2989 ft 258 kts
2026-04-29 00:31 43.70148 -70.21298 3444 ft 288 kts 351°
2026-04-29 00:32 43.72006 -70.22098 5131 ft 283 kts 335°
2026-04-29 00:32 43.73557 -70.23593 6688 ft 281 kts 316°
2026-04-29 00:32 43.74691 -70.25758 8058 ft 283 kts 294°
2026-04-29 00:32 43.75238 -70.28358 9301 ft 288 kts 282°
2026-04-29 00:33 43.75633 -70.31049 10476 ft 294 kts 282°
2026-04-29 00:33 43.76045 -70.33823 11671 ft 298 kts 282°
2026-04-29 00:33 43.76463 -70.36640 12765 ft 303 kts 282°
2026-04-29 00:33 43.76599 -70.39494 13811 ft 307 kts 265°
2026-04-29 00:34 43.76307 -70.42428 14840 ft 311 kts 262°
2026-04-29 00:34 43.75997 -70.45387 15818 ft 315 kts 261°
2026-04-29 00:34 43.75688 -70.48368 16768 ft 318 kts 261°
2026-04-29 00:34 43.75373 -70.51392 17712 ft 320 kts 261°
2026-04-29 00:35 43.75057 -70.54430 18592 ft 322 kts 261°
2026-04-29 00:35 43.74742 -70.57461 19370 ft 326 kts 261°
2026-04-29 00:35 43.74413 -70.60613 20134 ft 329 kts 261°
2026-04-29 00:35 43.74088 -70.63721 20855 ft 333 kts 261°
2026-04-29 00:36 43.73751 -70.66940 21541 ft 337 kts 261°
2026-04-29 00:36 43.73413 -70.70164 22197 ft 342 kts 261°
2026-04-29 00:36 43.73070 -70.73425 22833 ft 346 kts 261°
2026-04-29 00:36 43.72726 -70.76695 23486 ft 349 kts 261°
2026-04-29 00:37 43.72360 -70.80023 24136 ft 353 kts 257°
2026-04-29 00:37 43.71602 -70.83251 24786 ft 354 kts 247°
2026-04-29 00:37 43.70689 -70.86391 25425 ft 358 kts 247°
2026-04-29 00:37 43.69762 -70.89601 26059 ft 361 kts 247°
2026-04-29 00:38 43.68832 -70.92821 26688 ft 363 kts 247°
2026-04-29 00:38 43.67891 -70.96078 27258 ft 367 kts 247°
2026-04-29 00:38 43.66943 -70.99356 27820 ft 370 kts 247°
2026-04-29 00:38 43.65985 -71.02665 28388 ft 372 kts 247°
2026-04-29 00:39 43.65118 -71.05992 28905 ft 375 kts 253°
2026-04-29 00:39 43.64473 -71.09539 29384 ft 379 kts 255°
2026-04-29 00:39 43.63840 -71.13097 29839 ft 382 kts 254°
2026-04-29 00:39 43.63208 -71.16635 30371 ft 383 kts 254°
2026-04-29 00:40 43.62559 -71.20251 30886 ft 384 kts 254°
2026-04-29 00:40 43.61907 -71.23882 31310 ft 387 kts 254°
2026-04-29 00:40 43.61248 -71.27540 31813 ft 388 kts 254°
2026-04-29 00:40 43.60598 -71.31140 32316 ft 387 kts 254°
2026-04-29 00:41 43.59929 -71.34838 32742 ft 389 kts 254°
2026-04-29 00:41 43.59264 -71.38497 33123 ft 390 kts 254°
2026-04-29 00:41 43.58586 -71.42219 33535 ft 391 kts 254°
2026-04-29 00:41 43.57911 -71.45922 33870 ft 393 kts 254°
2026-04-29 00:42 43.57238 -71.49606 34233 ft 392 kts 254°
2026-04-29 00:42 43.56566 -71.53278 34598 ft 391 kts 254°
2026-04-29 00:42 43.55902 -71.56900 35009 ft 388 kts 254°
2026-04-29 00:42 43.55238 -71.60511 35366 ft 386 kts 255°
2026-04-29 00:43 43.54572 -71.64124 35726 ft 384 kts 255°
2026-04-29 00:43 43.53915 -71.67681 36074 ft 383 kts 254°
2026-04-29 00:43 43.53254 -71.71257 36457 ft 382 kts 254°
2026-04-29 00:43 43.52591 -71.74832 36867 ft 380 kts 254°
2026-04-29 00:44 43.51942 -71.78323 37248 ft 378 kts 255°
2026-04-29 00:44 43.51287 -71.81844 37566 ft 377 kts 255°
2026-04-29 00:44 43.50636 -71.85313 37855 ft 376 kts 254°
2026-04-29 00:44 43.49762 -71.88718 38144 ft 374 kts 245°
2026-04-29 00:45 43.48594 -71.91891 38396 ft 373 kts 243°
2026-04-29 00:45 43.47385 -71.95068 38613 ft 373 kts 243°
2026-04-29 00:45 43.46187 -71.98222 38790 ft 374 kts 244°
2026-04-29 00:45 43.44971 -72.01419 39040 ft 373 kts 244°
2026-04-29 00:46 43.43786 -72.04532 39242 ft 372 kts 244°
2026-04-29 00:46 43.42574 -72.07712 39369 ft 372 kts 243°
2026-04-29 00:46 43.41378 -72.10846 39507 ft 373 kts 244°
2026-04-29 00:46 43.40174 -72.13999 39639 ft 373 kts 244°
2026-04-29 00:47 43.38963 -72.17165 39765 ft 373 kts 244°
2026-04-29 00:47 43.37748 -72.20340 39920 ft 372 kts 244°
2026-04-29 00:47 43.36547 -72.23473 40045 ft 372 kts 244°
2026-04-29 00:48 43.34128 -72.29776 40129 ft 376 kts 244°
2026-04-29 00:48 43.31667 -72.36175 40136 ft 382 kts 244°
2026-04-29 00:49 43.29174 -72.42639 40136 ft 387 kts 244°
2026-04-29 00:49 43.26638 -72.49202 40130 ft 393 kts 244°
2026-04-29 00:50 43.24058 -72.55862 40118 ft 398 kts 244°
2026-04-29 00:50 43.21444 -72.62594 40112 ft 402 kts 244°
2026-04-29 00:51 43.18796 -72.69398 40107 ft 406 kts 243°
2026-04-29 00:51 43.16127 -72.76238 40109 ft 410 kts 243°
2026-04-29 00:52 43.13415 -72.83171 40110 ft 413 kts 243°
2026-04-29 00:52 43.10703 -72.90090 40103 ft 415 kts 243°
2026-04-29 00:53 43.07966 -72.97054 40099 ft 418 kts 243°
2026-04-29 00:53 43.05186 -73.04111 40090 ft 420 kts 243°
2026-04-29 00:54 43.02405 -73.11154 40092 ft 422 kts 243°
2026-04-29 00:54 42.99610 -73.18214 40102 ft 424 kts 243°
2026-04-29 00:55 42.96769 -73.25374 40105 ft 426 kts 243°
2026-04-29 00:55 42.93921 -73.32533 40102 ft 428 kts 243°
2026-04-29 00:56 42.91062 -73.39701 40100 ft 430 kts 243°
2026-04-29 00:56 42.88171 -73.46931 40094 ft 432 kts 243°
2026-04-29 00:57 42.85265 -73.54180 40091 ft 434 kts 243°
2026-04-29 00:57 42.82348 -73.61438 40087 ft 434 kts 243°
2026-04-29 00:58 42.79420 -73.68706 40094 ft 434 kts 243°
2026-04-29 00:58 42.76319 -73.75705 40088 ft 436 kts 235°
2026-04-29 00:59 42.72092 -73.81705 39762 ft 438 kts 222°
2026-04-29 00:59 42.69622 -73.84079 39205 ft 439 kts 215°
2026-04-29 00:59 42.66948 -73.86120 38647 ft 436 kts 213°
2026-04-29 00:59 42.64299 -73.88081 38108 ft 432 kts 213°
2026-04-29 01:00 42.61668 -73.90032 37571 ft 428 kts 213°
2026-04-29 01:00 42.59042 -73.91978 37013 ft 424 kts 213°
2026-04-29 01:00 42.56441 -73.93905 36462 ft 421 kts 212°
2026-04-29 01:00 42.53901 -73.95785 35933 ft 418 kts 212°
2026-04-29 01:01 42.51325 -73.97690 35400 ft 415 kts 212°
2026-04-29 01:01 42.48812 -73.99548 34868 ft 414 kts 212°
2026-04-29 01:01 42.46286 -74.01413 34310 ft 413 kts 211°
2026-04-29 01:01 42.43787 -74.03256 33735 ft 411 kts 212°
2026-04-29 01:02 42.41268 -74.05112 33168 ft 407 kts 211°
2026-04-29 01:02 42.38803 -74.06928 32626 ft 403 kts 211°
2026-04-29 01:02 42.36336 -74.08742 32071 ft 399 kts 211°
2026-04-29 01:02 42.33909 -74.10525 31534 ft 396 kts 211°
2026-04-29 01:03 42.31521 -74.12280 30986 ft 392 kts 211°
2026-04-29 01:03 42.29108 -74.14050 30416 ft 389 kts 211°
2026-04-29 01:03 42.26740 -74.15788 29843 ft 387 kts 211°
2026-04-29 01:03 42.24369 -74.17527 29262 ft 392 kts 211°
2026-04-29 01:04 42.21912 -74.19330 28681 ft 412 kts 211°
2026-04-29 01:04 42.19322 -74.21229 28103 ft 435 kts 211°
2026-04-29 01:04 42.16630 -74.23197 27526 ft 449 kts 211°
2026-04-29 01:04 42.13863 -74.25214 26953 ft 446 kts 211°
2026-04-29 01:05 42.11189 -74.27159 26384 ft 436 kts 211°
2026-04-29 01:05 42.08539 -74.29089 25803 ft 431 kts 211°
2026-04-29 01:05 42.05871 -74.31033 25223 ft 432 kts 212°
2026-04-29 01:05 42.03244 -74.32945 24666 ft 432 kts 211°
2026-04-29 01:06 42.00603 -74.34862 24099 ft 431 kts 211°
2026-04-29 01:06 41.97949 -74.36786 23520 ft 428 kts 211°
2026-04-29 01:06 41.95321 -74.38689 22951 ft 425 kts 212°
2026-04-29 01:06 41.92729 -74.40566 22381 ft 423 kts 212°
2026-04-29 01:07 41.90162 -74.42423 21799 ft 422 kts 212°
2026-04-29 01:07 41.87528 -74.44330 21229 ft 433 kts 212°
2026-04-29 01:07 41.84964 -74.46181 20677 ft 442 kts 212°
2026-04-29 01:07 41.82252 -74.48138 20109 ft 445 kts 212°
2026-04-29 01:08 41.79619 -74.50035 19540 ft 442 kts 212°
2026-04-29 01:08 41.76850 -74.51901 18915 ft 443 kts 206°
2026-04-29 01:08 41.73872 -74.52965 18227 ft 446 kts 193°
2026-04-29 01:08 41.70786 -74.53548 17503 ft 445 kts 192°
2026-04-29 01:09 41.67732 -74.54119 16798 ft 442 kts 192°
2026-04-29 01:09 41.64652 -74.54699 16091 ft 440 kts 192°
2026-04-29 01:09 41.61786 -74.55238 15450 ft 438 kts 192°
2026-04-29 01:09 41.58834 -74.55793 14748 ft 436 kts 191°
2026-04-29 01:10 41.55791 -74.56364 14031 ft 432 kts 192°
2026-04-29 01:10 41.54728 -74.56564 13783 ft 432 kts 191°
2026-04-29 01:10 41.51762 -74.57163 13062 ft 429 kts 191°
2026-04-29 01:10 41.48789 -74.57719 12358 ft 424 kts 191°
2026-04-29 01:11 41.45896 -74.58256 11650 ft 418 kts 191°
2026-04-29 01:11 41.43073 -74.58781 10961 ft 412 kts 190°
2026-04-29 01:11 41.40245 -74.59417 10256 ft 404 kts 196°
2026-04-29 01:11 41.37574 -74.60406 9556 ft 393 kts 198°
2026-04-29 01:12 41.34981 -74.61396 8848 ft 382 kts 199°
2026-04-29 01:12 41.32489 -74.62343 8157 ft 371 kts 199°
2026-04-29 01:12 41.30081 -74.63257 8061 ft 342 kts 198°
2026-04-29 01:12 41.27923 -74.64072 8404 ft 307 kts 198°
2026-04-29 01:13 41.25932 -74.64826 8279 ft 291 kts 199°
2026-04-29 01:13 41.23975 -74.65527 7845 ft 291 kts 192°
2026-04-29 01:13 41.22303 -74.65517 7337 ft 299 kts 168°
2026-04-29 01:13 41.20478 -74.64358 6744 ft 304 kts 141°
2026-04-29 01:14 41.19177 -74.62136 6141 ft 307 kts 120°
2026-04-29 01:14 41.18201 -74.59603 5521 ft 307 kts 117°
2026-04-29 01:14 41.17262 -74.57064 4913 ft 306 kts 116°
2026-04-29 01:14 41.16683 -74.54365 4328 ft 306 kts 99°
2026-04-29 01:15 41.16442 -74.51601 4042 ft 293 kts 97°
2026-04-29 01:15 41.16238 -74.49016 4002 ft 274 kts 97°
2026-04-29 01:15 41.16058 -74.46580 4006 ft 254 kts 97°
2026-04-29 01:15 41.15898 -74.44320 3999 ft 237 kts 97°
2026-04-29 01:16 41.15749 -74.42214 3989 ft 221 kts 97°
2026-04-29 01:16 41.15613 -74.40224 3995 ft 213 kts 97°
2026-04-29 01:16 41.15467 -74.38255 3986 ft 213 kts 97°
2026-04-29 01:16 41.15312 -74.36286 3905 ft 217 kts 97°
2026-04-29 01:17 41.15169 -74.34296 3642 ft 218 kts 97°
2026-04-29 01:17 41.15030 -74.32285 3383 ft 215 kts 97°
2026-04-29 01:17 41.14890 -74.30328 3133 ft 212 kts 98°
2026-04-29 01:17 41.14719 -74.28399 2981 ft 203 kts 107°
2026-04-29 01:18 41.14077 -74.26756 2999 ft 201 kts 126°
2026-04-29 01:18 41.12480 -74.23634 2982 ft 206 kts 126°
2026-04-29 01:18 41.11671 -74.22039 2990 ft 207 kts 126°
2026-04-29 01:19 41.10869 -74.20458 2902 ft 209 kts 126°
2026-04-29 01:19 41.10063 -74.18868 2753 ft 206 kts 126°
2026-04-29 01:19 41.09255 -74.17273 2627 ft 205 kts 126°
2026-04-29 01:19 41.08469 -74.15723 2504 ft 205 kts 126°
2026-04-29 01:20 41.07663 -74.14135 2379 ft 205 kts 126°
2026-04-29 01:20 41.06871 -74.12573 2256 ft 204 kts 126°
2026-04-29 01:20 41.06070 -74.10993 2131 ft 204 kts 126°
2026-04-29 01:20 41.05272 -74.09422 2082 ft 204 kts 126°
2026-04-29 01:21 41.04474 -74.07850 2086 ft 204 kts 126°
2026-04-29 01:21 41.03701 -74.06332 2088 ft 204 kts 127°
2026-04-29 01:21 41.02658 -74.05081 2085 ft 201 kts 155°
2026-04-29 01:21 41.01316 -74.04718 2091 ft 199 kts 181°
2026-04-29 01:22 40.99910 -74.04825 2096 ft 199 kts 185°
2026-04-29 01:22 40.98559 -74.04957 2101 ft 188 kts 185°
2026-04-29 01:22 40.97283 -74.05057 2097 ft 180 kts 184°
2026-04-29 01:22 40.96026 -74.05150 2050 ft 181 kts 184°
2026-04-29 01:23 40.94783 -74.05240 1815 ft 170 kts 184°
2026-04-29 01:23 40.93680 -74.05319 1618 ft 147 kts 184°
2026-04-29 01:23 40.92729 -74.05387 1444 ft 130 kts 184°
2026-04-29 01:23 40.91833 -74.05454 1256 ft 128 kts 184°
2026-04-29 01:24 40.90921 -74.05521 1091 ft 127 kts 184°
2026-04-29 01:24 40.90041 -74.05585 932 ft 126 kts 183°
2026-04-29 01:24 40.89159 -74.05655 765 ft 126 kts 184°
2026-04-29 01:24 40.88281 -74.05718 597 ft 126 kts 184°
2026-04-29 01:25 40.87396 -74.05777 438 ft 125 kts 183°
2026-04-29 01:25 40.86520 -74.05836 244 ft 127 kts 183°
2026-04-29 01:25 40.85645 -74.05906 34 ft 125 kts 182°
2026-04-29 01:25 40.84873 -74.05959 15 ft 87 kts 181°
2026-04-29 01:26 40.84610 -74.06010 14 ft 4 kts 295°
2026-04-29 01:26 40.84613 -74.06019 14 ft 0 kts 296°
2026-04-29 01:26 40.84646 -74.06086 14 ft 10 kts 306°
2026-04-29 01:26 40.84658 -74.06106 14 ft 0 kts 309°
2026-04-29 01:27 40.84658 -74.06107 14 ft 1 kts 309°
2026-04-29 01:27 40.84710 -74.06199 14 ft 20 kts 308°
2026-04-29 01:27 40.84802 -74.06357 14 ft 22 kts 307°
2026-04-29 01:27 40.84902 -74.06529 14 ft 24 kts 308°
2026-04-29 01:28 40.85007 -74.06708 14 ft 21 kts 308°
2026-04-29 01:28 40.85085 -74.06829 14 ft 9 kts
2026-04-29 01:28 40.85126 -74.06795 14 ft 0 kts 38°